Theta_e
316 314 315 320 322 324 326 325 320 321 320 314 315 316 318 321 321 322 321 320 319 317 315 315 316 317 318 318 320 319 319 319 320 317 318 326 323 318 320 321 320 324 326 327 333 334 336 337 337 339 340 341 340 340 340 340 339 338 338 335 332 331 332 334 336 337 338 339 339 339 339 338 338 338 338 339 339 337 337 337 337 338 338 338 339 340 340 339 338 338 338 337 335 335 334 334 333
318 317 319 323 323 323 325 324 318 318 316 311 314 317 318 321 321 321 320 320 320 316 314 315 315 316 316 317 318 319 320 319 320 320 321 322 322 322 319 321 320 323 327 328 333 335 337 339 337 338 339 340 340 340 340 340 340 338 338 337 334 333 335 336 337 338 339 339 339 340 339 338 338 338 338 339 339 337 337 337 337 337 338 338 339 339 339 338 337 337 336 335 335 334 334 332 331
322 322 323 325 324 324 325 322 316 314 313 310 312 318 319 320 320 320 319 318 319 315 313 316 315 316 316 317 318 319 321 320 320 319 321 321 324 328 321 322 319 322 328 327 334 336 339 340 337 338 339 340 340 340 340 340 340 339 339 338 336 336 337 337 338 338 339 339 339 340 339 339 338 339 339 338 338 337 337 337 337 337 337 338 339 338 337 337 336 336 335 334 334 333 333 331 330
324 323 324 326 324 324 324 321 318 314 311 310 311 318 320 319 320 318 318 318 317 314 314 317 317 317 317 319 319 318 320 319 321 320 323 323 326 329 323 323 318 322 328 327 334 337 339 340 337 337 338 340 339 340 339 339 339 338 339 338 337 336 337 338 338 338 338 339 339 339 339 339 339 338 338 337 337 337 336 336 336 337 337 337 337 336 335 335 334 334 334 333 332 332 331 330 330
323 321 322 325 324 322 322 321 320 315 312 312 311 316 320 318 319 318 318 317 316 315 314 317 318 317 315 318 318 319 320 319 321 319 324 325 323 326 324 324 319 324 329 327 333 337 339 339 336 335 337 338 339 339 338 338 338 338 338 337 336 336 337 338 338 338 338 339 338 338 339 339 338 337 337 336 336 335 335 335 336 336 336 336 336 335 334 333 332 332 333 333 332 332 331 329 328
323 321 321 322 322 321 321 318 317 316 316 317 314 317 319 318 319 317 318 317 315 314 314 316 317 316 315 317 317 319 321 319 321 320 322 324 321 324 325 324 320 325 330 329 333 336 338 337 334 334 335 336 338 338 337 338 337 337 338 336 336 337 337 338 338 339 339 339 338 339 338 338 337 336 336 335 334 333 332 333 334 335 334 334 334 333 332 331 330 330 331 330 331 330 329 326 323
324 323 322 321 320 320 320 317 315 316 319 319 317 318 318 317 319 317 318 318 315 314 314 315 314 315 317 316 316 318 318 317 321 321 320 322 321 323 326 324 322 327 330 330 333 336 337 336 332 333 334 335 337 337 337 336 336 336 337 336 337 338 338 338 339 339 339 338 338 339 338 337 336 335 335 333 332 331 331 331 332 333 333 332 332 331 330 330 329 328 328 327 327 325 322 318 313
323 323 322 321 321 321 319 317 318 319 319 318 319 319 318 318 318 317 317 318 317 316 314 314 313 316 318 314 316 318 315 315 318 319 318 320 321 323 326 325 323 326 329 329 332 335 336 335 332 334 334 335 337 336 336 335 336 337 337 337 337 338 338 338 339 339 338 338 338 338 336 335 335 334 333 332 330 329 329 330 331 332 331 330 329 329 329 328 328 326 324 322 319 315 311 307 304
320 321 321 321 320 319 317 317 318 319 320 319 319 319 319 318 317 316 317 318 317 317 315 315 314 316 317 314 317 319 316 315 314 316 317 319 320 321 325 325 324 325 326 327 330 334 336 335 334 336 335 335 336 335 335 335 337 337 337 337 338 339 338 338 338 338 338 338 337 336 335 334 333 332 330 329 328 327 327 328 329 329 329 328 328 328 327 327 325 322 317 312 308 305 303 301 300
320 320 321 321 318 316 315 315 317 318 319 318 317 317 317 316 316 316 317 318 317 317 315 312 313 316 317 316 318 319 318 315 313 315 315 317 319 321 325 325 326 325 325 327 330 333 334 334 335 337 336 335 335 334 334 335 336 337 337 337 337 338 338 338 337 338 337 336 336 334 334 332 331 329 328 328 327 326 326 327 327 327 327 327 327 327 326 324 321 316 310 305 302 301 300 300 300
320 319 319 319 315 312 312 314 316 319 318 317 317 316 316 316 315 316 317 317 316 317 314 311 314 316 316 316 318 318 315 313 314 316 315 317 318 320 325 326 327 327 325 327 329 331 333 334 335 337 336 335 336 335 335 335 336 337 337 337 337 337 337 337 336 336 336 335 334 332 331 330 330 328 327 327 326 325 326 326 326 326 326 325 325 325 322 319 316 311 305 301 299 299 300 300 299
320 320 319 317 314 313 314 315 316 319 319 319 319 316 314 314 315 317 317 317 316 316 315 314 315 316 316 317 319 318 314 313 314 315 315 317 318 319 325 328 328 329 327 328 330 331 333 334 334 336 335 336 336 335 335 334 335 336 336 335 335 335 334 334 333 333 334 333 331 330 329 329 329 327 327 326 325 325 324 324 324 325 325 324 324 321 317 314 311 307 302 299 299 299 299 299 299
320 322 319 315 316 317 317 316 317 319 319 320 318 314 312 314 317 317 317 317 316 317 316 315 314 315 317 318 318 318 316 315 313 313 315 317 318 319 324 328 329 330 330 330 332 332 333 334 334 336 336 336 336 334 334 334 334 334 334 334 334 332 332 332 331 332 333 330 329 329 328 328 328 327 326 325 325 324 323 322 322 323 322 322 321 317 313 311 308 304 299 299 299 299 299 298 298
320 321 318 317 318 319 317 317 319 318 316 318 316 312 311 314 316 315 316 316 317 317 314 313 314 315 317 317 318 318 318 314 312 314 315 317 318 319 325 327 328 330 330 331 332 332 333 334 334 335 335 335 334 333 332 332 333 332 332 332 332 331 331 331 330 331 331 329 328 328 328 328 327 326 325 324 324 323 321 320 320 320 320 320 318 313 310 308 304 300 299 299 299 298 298 298 298
320 320 319 319 318 318 318 318 319 317 316 317 315 311 312 314 314 314 315 316 316 314 312 312 313 315 317 317 317 319 316 312 313 314 315 317 317 320 324 326 328 329 330 330 331 332 333 333 334 334 334 335 334 333 331 330 329 328 329 330 331 331 331 331 330 330 330 328 328 328 327 327 326 325 324 323 323 321 319 318 318 319 319 318 314 309 308 304 300 299 299 299 299 299 298 298 299
318 320 319 319 318 317 318 318 318 316 317 317 313 310 314 314 312 313 314 313 315 313 312 313 312 314 317 316 317 317 312 312 313 314 315 317 319 321 323 325 327 328 329 330 330 331 332 333 333 333 333 333 333 332 330 329 327 326 328 329 330 330 330 330 330 329 329 328 327 327 327 326 326 325 323 322 321 318 316 315 317 319 319 317 312 308 305 301 298 298 298 298 298 298 299 299 299
317 320 319 317 316 317 317 318 317 316 317 317 314 312 315 315 312 311 310 309 313 314 312 314 314 313 314 316 316 313 311 313 313 315 318 320 322 322 323 324 326 327 328 329 330 331 331 332 332 332 332 332 332 331 328 327 326 326 328 329 330 330 329 330 330 329 328 327 327 326 326 325 325 324 322 321 319 316 313 312 314 318 320 317 311 306 302 299 298 298 298 298 298 299 299 299 299
318 320 318 316 317 318 318 318 317 315 316 316 315 313 313 315 314 312 310 311 313 314 313 314 314 313 314 315 314 312 312 312 313 317 321 324 325 324 324 324 324 326 327 327 328 330 330 331 331 331 331 331 331 330 327 326 326 326 328 329 330 329 329 330 329 328 328 327 326 326 325 325 324 323 322 321 319 317 313 311 313 318 321 317 309 304 301 298 298 297 297 298 298 298 298 299 299
319 320 318 317 319 318 317 317 316 315 315 316 315 313 312 314 314 312 313 315 314 314 315 314 314 314 314 315 314 313 312 313 315 318 322 325 325 326 326 325 324 325 326 327 327 328 328 329 330 330 331 331 330 329 326 325 325 326 328 330 330 329 329 329 329 328 327 326 326 325 325 325 324 323 321 319 317 317 314 311 315 319 320 316 307 303 299 297 297 297 297 297 297 298 298 298 299
319 319 318 319 320 318 315 315 315 315 314 315 315 313 312 313 312 312 313 315 315 315 316 316 315 316 316 315 315 314 312 314 316 318 320 322 323 325 325 327 326 324 325 326 327 327 327 327 328 328 330 330 329 327 326 325 325 327 329 329 329 329 328 328 328 328 326 326 326 325 325 324 322 321 318 314 313 315 314 313 317 319 319 315 307 303 299 297 297 297 297 297 297 297 298 298 298
319 317 319 320 319 317 316 315 315 314 312 313 314 313 313 313 311 311 313 314 315 316 316 316 316 316 316 315 316 316 313 315 316 317 319 320 322 322 323 325 325 323 323 325 327 326 326 326 326 326 328 329 328 326 325 325 326 327 328 328 329 328 328 328 328 327 326 326 325 324 324 321 319 319 316 312 313 316 315 315 317 318 318 314 307 305 302 298 297 297 297 296 297 297 297 298 298
317 317 319 319 316 316 317 315 314 312 310 312 313 314 314 312 311 312 313 314 316 316 317 317 316 315 316 315 316 316 314 315 316 317 318 319 320 321 321 322 324 323 322 324 325 324 325 324 325 325 326 327 326 326 325 324 325 326 327 327 328 328 328 328 327 327 326 326 325 324 322 320 319 318 315 312 314 316 316 317 318 318 316 312 306 305 301 297 297 297 297 297 297 297 297 297 297
317 318 318 318 317 317 317 315 314 311 311 313 314 314 314 313 314 314 313 314 315 316 316 316 316 316 316 314 314 314 314 315 316 317 318 319 319 320 320 320 322 322 321 321 322 323 323 323 324 325 325 325 326 327 326 325 324 324 326 326 326 327 327 327 326 326 326 326 325 323 321 321 320 318 314 312 312 313 314 314 315 315 313 308 303 301 298 297 297 296 296 297 297 297 297 297 297
316 317 317 317 316 316 316 315 313 312 313 314 314 314 313 314 316 315 314 314 315 315 315 315 316 316 315 313 312 312 313 315 316 316 317 317 318 318 318 318 319 319 319 319 320 321 321 321 323 324 324 324 325 326 326 325 323 323 324 325 325 326 326 326 325 325 325 325 325 324 322 321 319 317 314 311 309 309 310 309 308 309 308 305 302 299 298 297 296 296 297 297 297 297 297 297 297
315 317 317 315 314 315 315 314 312 312 313 314 313 313 314 315 315 314 314 314 314 314 314 314 315 314 313 312 311 312 312 313 315 315 316 315 315 316 317 317 318 319 318 318 319 319 319 320 321 323 323 323 324 325 325 325 323 322 322 323 323 325 325 325 325 324 324 325 325 323 321 320 318 315 312 309 308 307 306 304 304 305 305 303 300 299 298 297 296 297 297 297 297 297 297 297 296
315 316 316 314 314 314 314 312 312 312 312 313 312 313 314 313 312 313 313 314 314 314 314 314 313 312 312 312 311 311 311 312 314 314 315 314 313 315 315 316 317 317 316 317 318 318 318 319 319 320 321 323 324 324 324 324 323 322 321 321 322 323 324 325 324 324 324 324 324 323 320 318 316 314 310 307 306 304 303 302 302 303 303 301 299 298 297 296 296 297 297 297 297 297 297 296 296
312 313 313 313 313 313 312 311 312 311 311 311 311 313 313 311 310 313 314 313 313 312 313 312 312 311 311 311 311 311 311 311 313 313 313 313 314 314 313 315 315 314 314 316 316 316 317 317 318 319 320 322 324 324 323 323 323 323 322 321 321 322 322 323 324 324 324 324 323 321 319 317 315 312 309 306 304 303 302 301 301 301 301 300 298 297 297 296 296 296 297 297 297 296 296 296 295
310 310 311 312 312 312 311 311 311 311 310 310 310 312 312 311 310 312 313 312 311 311 311 312 312 312 312 312 311 311 311 311 312 311 312 312 313 314 313 313 314 313 314 313 314 315 315 316 317 318 319 320 322 324 323 323 324 323 323 322 322 322 321 322 323 323 324 323 323 320 317 316 314 312 308 305 302 302 301 300 300 299 299 298 297 297 296 296 296 296 297 297 297 296 296 295 294
309 309 311 312 312 312 313 312 310 310 310 309 309 311 311 312 311 312 313 313 311 310 310 311 311 312 312 312 311 311 311 312 311 311 311 311 312 313 313 312 312 312 313 312 313 314 314 315 316 316 317 319 320 322 323 323 324 323 324 323 322 322 322 321 321 322 322 322 321 319 317 315 313 311 308 304 302 301 300 300 299 298 298 297 297 296 296 296 296 296 297 296 296 296 295 294 294
310 310 310 312 312 312 312 311 308 308 309 309 309 310 312 313 313 313 313 312 311 310 311 311 311 312 312 312 311 311 312 312 312 312 312 311 311 312 311 311 311 311 312 312 313 313 313 313 314 315 316 317 318 320 322 322 323 323 323 323 323 322 322 321 320 320 321 321 321 319 317 315 311 310 308 305 303 301 300 299 298 297 297 297 296 296 295 295 296 296 296 296 295 295 294 294 293
310 310 310 311 312 313 312 310 307 308 309 308 309 310 311 313 314 314 312 310 309 310 311 312 312 312 311 311 311 311 312 312 313 313 312 311 311 310 310 310 310 310 310 311 311 311 312 312 312 314 314 316 316 318 320 321 322 323 323 322 322 322 321 321 320 320 320 320 320 319 317 315 312 309 307 306 303 301 299 298 297 297 296 296 296 295 295 295 295 296 295 295 294 294 293 293 292
311 311 312 313 312 313 313 310 309 310 308 306 309 311 312 313 313 313 311 308 308 309 310 311 311 311 311 312 311 311 312 312 313 312 312 311 310 309 309 309 309 309 309 309 309 310 310 311 312 312 313 314 315 316 317 319 320 321 321 321 321 322 321 321 320 320 320 319 319 319 317 314 312 310 307 306 304 301 299 298 297 297 296 296 295 295 295 295 295 295 295 295 294 293 293 292 292
312 311 313 314 313 312 313 312 311 310 308 308 309 310 312 312 312 312 311 309 309 309 310 311 311 311 312 312 312 312 311 312 313 312 312 311 310 310 309 309 309 309 309 308 308 309 309 310 310 311 311 312 313 315 316 318 319 319 320 320 320 320 320 320 319 319 319 318 318 318 316 314 312 309 307 306 305 302 299 298 297 297 296 296 295 295 295 295 295 295 295 295 294 293 292 291 292
313 313 313 313 313 311 311 312 311 309 308 309 309 309 310 311 311 311 311 311 310 310 310 310 311 311 311 312 312 312 312 312 312 312 311 311 311 310 309 309 308 308 308 308 308 308 308 309 309 310 310 311 312 314 315 317 317 318 318 318 318 318 319 319 318 318 317 317 317 317 316 314 312 309 307 306 306 303 299 297 297 297 296 295 295 294 294 295 295 295 295 294 293 293 292 292 292
314 314 313 313 312 311 310 311 311 310 310 310 310 310 310 311 310 310 311 310 310 310 310 310 310 310 311 311 311 312 312 312 312 312 311 311 310 311 310 309 308 308 308 307 307 307 308 308 309 309 309 310 311 312 314 315 316 316 316 316 316 317 316 317 317 316 315 315 316 315 315 314 312 310 307 306 306 303 299 297 297 296 296 295 294 294 294 294 294 294 295 294 293 292 293 293 292
314 313 312 312 312 311 311 311 312 310 310 310 311 311 311 311 311 310 311 311 311 311 311 311 311 311 311 311 312 313 312 312 312 312 311 311 311 310 309 309 308 308 307 307 306 307 307 307 308 308 308 309 310 311 313 314 314 314 314 314 314 314 314 314 315 314 314 314 314 314 314 313 312 310 307 306 305 303 299 297 296 296 295 294 294 294 294 294 295 294 294 294 292 291 292 293 292
311 312 312 312 312 312 312 312 312 310 309 310 311 311 311 311 311 311 311 311 311 311 311 311 311 311 312 313 313 313 312 313 313 312 312 311 311 309 308 307 307 307 307 307 306 306 306 307 308 308 307 308 308 310 312 313 313 313 313 313 313 312 312 312 312 312 312 312 312 313 313 312 311 310 308 306 304 302 299 296 296 296 295 294 293 294 294 295 295 294 294 293 292 291 291 291 290
310 312 312 313 313 313 312 312 312 309 308 310 310 311 311 311 311 311 311 311 311 311 311 311 312 313 313 313 313 313 312 313 313 312 312 311 310 309 307 307 306 306 307 306 305 305 305 306 307 307 307 307 307 308 310 311 312 312 312 312 312 311 310 311 310 310 311 310 311 311 311 311 310 309 308 306 304 301 298 296 296 296 295 294 293 293 294 294 294 294 293 292 291 291 291 290 290
311 312 312 313 313 313 312 312 310 307 308 311 311 310 310 310 311 311 312 312 312 312 312 312 313 313 313 313 312 312 312 312 312 312 311 311 310 308 308 307 306 305 305 305 304 304 304 305 306 307 307 306 306 307 307 309 310 311 311 311 310 310 309 309 309 309 309 309 310 310 309 309 309 308 307 305 302 299 297 296 295 295 295 294 293 293 293 293 294 293 293 292 291 292 292 290 289
312 312 313 313 313 314 313 312 309 307 308 310 310 310 311 312 312 312 312 311 311 312 312 313 313 312 312 312 311 311 310 311 312 310 310 309 309 308 307 306 305 305 305 304 303 303 303 304 305 306 306 306 305 305 306 307 308 308 309 309 309 308 307 307 307 307 307 307 307 307 307 307 307 306 305 304 301 298 296 295 295 295 295 294 293 293 293 293 293 293 293 292 291 293 293 291 289
313 313 313 313 314 314 313 312 310 309 311 310 310 313 314 314 314 314 313 311 311 313 313 313 313 312 312 312 311 310 310 310 310 309 308 308 308 307 306 305 305 305 304 302 301 302 302 303 304 304 305 305 305 305 305 305 306 306 307 307 306 306 306 305 304 305 304 304 304 303 304 304 304 304 304 303 301 298 296 295 295 295 295 294 293 293 293 293 293 293 292 292 291 292 293 292 290
315 314 314 313 313 313 313 313 312 311 313 311 311 315 316 315 314 315 315 313 314 315 315 313 313 312 311 310 310 310 310 309 308 308 307 307 307 306 305 304 303 303 301 300 301 301 301 302 302 303 304 304 304 304 304 304 304 305 305 306 305 305 305 304 303 303 303 302 302 302 302 302 302 302 302 302 300 298 296 295 295 295 295 294 293 292 292 292 292 293 292 292 292 292 293 293 292
314 315 314 312 312 313 313 313 312 313 314 311 310 314 317 315 315 315 316 315 314 315 315 314 312 310 309 309 310 309 308 308 307 307 306 305 305 304 303 302 301 301 299 299 300 301 300 301 301 301 302 303 303 303 303 303 304 304 304 304 305 304 305 304 303 302 302 301 301 301 301 301 301 301 300 300 299 298 296 296 295 295 295 295 294 292 292 292 292 293 293 293 292 292 294 294 293
315 315 313 313 313 313 313 312 312 312 312 311 311 312 315 316 315 314 315 315 315 315 316 314 310 308 308 308 308 308 307 306 306 305 304 303 303 303 302 301 300 299 298 298 299 300 300 300 300 301 301 302 302 302 302 302 303 303 304 304 304 304 304 304 303 301 301 300 300 300 300 300 299 299 299 298 298 297 296 296 295 295 295 295 294 293 292 292 292 292 292 292 292 292 293 294 294
315 312 310 311 311 311 311 311 312 310 310 313 313 312 315 318 315 312 312 313 314 315 314 312 309 308 308 308 307 306 305 304 304 303 302 302 302 302 301 300 299 298 298 297 297 298 299 299 300 300 300 301 301 301 301 301 302 303 303 303 303 303 303 303 302 301 300 300 299 299 299 298 298 298 298 297 297 296 296 296 296 295 295 295 294 293 292 292 292 292 292 292 291 291 292 293 295
311 309 309 310 310 310 310 311 311 310 311 316 315 313 316 320 316 313 313 313 314 315 313 311 309 308 308 307 306 305 304 304 303 302 301 301 301 300 300 299 298 298 297 297 296 297 297 298 298 299 299 299 300 300 300 300 301 301 302 302 303 303 303 302 302 301 300 299 299 298 298 297 297 297 297 297 296 296 296 295 295 295 295 295 295 294 293 292 292 292 292 292 292 292 291 292 295
308 309 311 311 310 308 308 309 309 312 316 318 316 314 316 318 317 315 315 313 312 312 312 311 309 308 307 306 304 303 302 302 301 300 300 300 300 299 299 298 298 297 297 296 296 296 296 296 297 298 298 297 298 298 299 300 300 300 301 302 302 302 302 302 302 301 300 300 299 299 298 297 297 296 296 296 296 295 295 295 295 295 295 295 295 295 294 293 292 291 291 292 292 291 291 291 293
309 310 311 312 312 310 310 310 310 316 321 317 313 313 315 317 317 314 313 312 310 310 311 310 308 308 306 305 303 301 300 300 299 299 299 298 298 298 298 297 297 297 296 296 296 296 296 295 296 297 296 296 296 297 297 298 299 300 300 300 301 301 301 301 301 301 300 300 299 299 298 297 297 296 296 295 295 295 295 294 295 294 294 294 294 295 294 294 293 291 291 291 291 291 291 291 291
309 310 310 314 316 316 317 316 315 319 320 312 308 311 313 315 315 313 313 313 310 309 308 307 307 307 305 303 302 300 299 299 298 297 297 297 297 297 297 297 296 296 296 295 295 295 295 295 295 296 295 295 295 295 296 297 298 298 299 299 300 300 300 300 300 300 300 300 299 299 299 298 297 296 296 295 295 295 294 294 294 294 294 294 294 294 294 294 293 292 291 291 291 290 290 290 291
309 310 312 315 318 320 322 320 317 318 318 309 306 311 314 315 315 314 314 312 307 305 305 305 305 304 303 301 300 299 298 297 297 297 296 296 296 297 296 296 296 295 295 295 295 295 295 295 295 295 295 294 294 294 295 295 296 296 297 297 298 298 299 299 299 299 299 299 299 298 298 298 297 297 296 296 295 295 294 294 294 294 294 294 294 294 294 294 293 293 292 291 291 291 291 291 291
309 311 312 315 318 320 321 321 319 320 319 311 308 313 317 317 315 312 311 308 305 305 305 304 304 303 302 300 299 298 297 296 296 296 295 295 296 296 295 295 295 295 295 294 294 294 294 294 294 294 295 294 294 294 294 294 294 294 295 295 296 296 297 298 298 298 298 298 298 298 298 298 298 297 297 296 296 295 295 294 294 294 294 293 293 293 293 293 293 293 292 292 292 291 291 291 291
310 309 310 314 316 317 319 319 319 319 320 315 313 315 316 315 314 311 310 307 305 306 305 303 303 301 300 299 298 297 296 296 296 295 295 295 295 295 295 295 294 294 294 294 294 294 294 294 294 294 294 294 294 293 294 293 293 293 293 293 294 294 295 296 296 297 297 297 297 297 297 297 297 297 297 296 296 296 295 294 294 293 293 293 293 293 293 293 292 292 292 291 291 291 291 290 290
310 309 312 314 313 314 316 317 316 316 319 319 317 317 316 315 316 312 309 307 306 305 303 302 301 300 299 298 297 296 296 295 295 294 294 295 295 295 295 294 294 294 294 293 293 293 293 293 293 293 293 293 293 293 293 293 293 293 293 293 293 293 293 294 294 295 295 295 296 296 296 296 296 296 296 296 296 296 295 294 294 293 293 293 293 293 293 293 292 292 291 291 291 291 290 290 290
310 310 314 313 311 311 312 315 316 317 319 320 318 319 318 317 317 312 309 309 308 304 302 301 300 299 298 297 296 295 294 294 294 293 294 294 294 294 294 294 293 293 293 293 293 292 292 292 292 292 292 292 292 292 293 293 293 293 293 293 292 292 292 293 293 293 294 294 294 295 295 295 295 295 295 295 295 295 295 294 294 293 293 293 293 293 293 292 292 292 291 291 291 290 290 290 289
310 311 312 312 313 314 313 315 317 318 320 320 318 318 317 317 317 314 311 311 309 304 302 300 299 298 297 296 295 294 293 293 293 293 293 293 293 293 293 294 293 293 293 292 292 292 292 291 291 291 291 291 292 292 292 292 292 292 292 292 292 292 292 292 292 292 292 293 293 294 294 294 294 294 294 294 294 294 294 294 294 293 293 293 293 292 292 292 292 291 291 291 290 290 290 289 289
309 309 309 309 312 314 315 315 316 318 319 319 319 318 317 316 316 313 312 310 308 304 302 300 298 297 296 296 295 294 293 293 292 292 292 292 293 293 293 293 293 293 292 292 292 292 292 291 290 290 290 290 290 290 291 291 291 291 291 291 292 292 292 292 292 292 292 292 292 293 293 293 294 294 294 294 294 294 294 294 294 293 293 293 292 292 292 291 291 291 291 291 291 290 290 289 289
310 310 310 310 310 311 313 314 314 316 317 318 319 318 316 316 314 311 309 306 305 303 301 299 297 296 295 295 294 294 293 292 292 292 292 292 292 292 292 292 292 292 292 292 292 292 291 291 290 290 289 289 289 289 289 290 290 290 290 290 290 291 291 292 292 291 291 291 292 292 292 292 292 293 293 293 293 293 293 293 293 293 293 293 292 292 292 291 291 291 290 290 290 290 290 289 289
312 312 312 312 312 312 314 315 315 314 315 317 317 317 318 316 310 307 306 303 303 302 300 299 297 296 295 294 294 293 293 292 292 291 291 292 292 291 292 292 292 292 292 291 291 291 291 290 290 289 289 289 289 289 289 289 289 289 290 289 289 289 289 290 291 291 291 291 291 291 291 291 291 292 292 292 292 293 293 293 293 293 293 293 292 292 292 291 291 290 290 290 290 290 290 289 289
Wind_Speed
4 4 3 3 4 3 2 2 2 0 2 4 2 2 0 0 3 3 2 1 2 0 1 1 2 3 1 3 5 7 6 6 5 4 2 3 3 5 14 17 13 16 27 31 30 30 28 27 25 23 22 20 20 19 18 17 16 14 13 13 13 12 11 11 11 11 11 11 11 11 11 11 11 11 11 10 9 8 7 7 7 8 8 8 8 8 7 7 7 6 6 4 3 3 3 3 2
3 3 2 1 3 2 1 1 4 1 3 4 0 1 2 1 2 2 4 5 4 3 1 2 3 4 4 5 6 7 6 7 5 4 2 2 4 5 14 18 15 19 27 30 29 29 27 25 25 24 23 21 20 20 19 18 17 15 14 13 13 12 11 11 11 11 12 11 11 12 12 11 11 10 10 9 8 7 6 6 7 8 8 9 9 8 7 7 6 6 5 4 3 2 2 1 1
2 2 1 1 2 1 1 1 3 2 4 4 2 1 1 2 1 3 5 5 5 2 1 2 3 4 5 7 5 5 4 3 5 4 2 5 4 4 14 18 17 21 27 30 28 27 24 22 26 26 23 22 21 20 19 18 17 16 15 14 13 12 11 11 11 11 12 12 12 12 11 11 11 10 9 9 7 7 6 6 7 8 8 9 8 7 6 5 5 4 3 3 2 2 2 2 4
2 2 0 2 1 1 1 2 2 3 4 3 2 2 1 3 3 4 4 4 4 1 3 3 2 2 6 7 3 3 5 3 2 4 2 2 4 4 12 20 18 22 26 31 29 25 21 20 26 27 24 21 21 21 20 19 18 17 16 15 14 14 13 12 12 13 13 13 13 12 12 11 10 9 9 9 7 7 7 7 7 8 8 8 7 6 5 4 4 4 4 4 3 3 3 5 6
2 3 1 2 2 1 1 1 1 3 3 2 3 1 1 3 5 8 5 5 4 4 4 4 2 2 4 5 2 2 3 1 2 5 3 1 4 5 12 21 18 21 26 30 29 23 20 20 25 26 24 21 21 21 21 20 18 17 16 16 15 15 15 14 14 14 14 14 13 13 12 11 10 9 9 8 7 7 9 8 7 7 8 8 7 6 5 4 4 4 5 5 5 5 6 7 7
2 4 4 2 0 1 1 2 2 4 2 1 6 5 3 4 6 9 8 6 2 3 4 4 3 1 3 3 3 4 3 1 1 4 5 2 4 5 14 22 19 21 25 28 27 22 19 21 26 26 24 22 20 20 21 20 18 18 16 16 16 16 16 16 16 15 14 14 14 13 12 10 10 9 8 8 7 6 8 10 9 7 8 8 7 6 6 5 4 4 6 7 7 7 7 8 8
2 1 3 3 2 1 3 3 4 5 1 1 6 7 8 7 5 8 10 6 1 4 3 4 2 3 4 1 3 6 8 7 2 3 6 5 4 5 15 23 19 20 24 25 24 20 18 23 28 26 24 22 20 20 21 20 19 18 17 17 17 16 16 16 16 15 15 14 13 12 12 11 10 9 8 8 8 8 8 10 9 9 10 9 7 6 6 6 6 5 6 7 7 7 7 7 7
1 0 1 2 2 1 3 3 4 4 1 2 5 8 11 10 6 8 9 4 1 2 4 4 2 4 1 2 3 3 8 11 9 8 7 7 6 6 16 25 21 21 25 25 22 18 19 25 28 26 25 23 21 21 21 20 20 19 18 18 17 17 17 17 16 15 14 14 13 12 11 10 11 10 9 9 10 9 9 9 9 10 11 9 8 7 8 7 6 6 7 7 7 6 6 6 6
2 1 1 2 2 1 3 3 4 3 3 4 6 9 11 9 6 7 8 5 3 3 3 3 4 5 2 1 6 1 4 9 11 13 10 10 8 8 16 26 23 23 27 26 23 19 21 26 28 26 25 23 22 21 21 20 19 18 18 19 18 18 17 16 16 15 14 13 13 13 11 11 11 10 11 12 12 12 11 10 10 10 10 9 9 9 9 8 7 8 7 7 6 5 4 3 2
1 2 1 1 1 3 4 3 2 2 3 4 7 10 10 7 4 5 7 5 3 3 1 1 4 8 5 5 7 2 3 6 8 11 12 12 10 9 16 25 24 24 27 25 22 19 21 27 28 26 25 24 22 22 21 20 19 18 18 19 18 17 16 15 16 15 14 15 15 14 12 13 12 11 13 13 12 12 11 11 10 10 10 9 10 10 10 9 8 8 7 5 4 2 0 2 2
1 1 0 2 2 4 3 3 3 2 3 4 7 8 7 4 3 4 5 5 3 3 1 3 4 7 6 6 5 2 5 7 6 7 10 12 11 11 15 22 23 23 25 24 22 21 21 26 29 27 26 25 23 23 21 21 21 20 19 19 19 18 17 17 17 16 16 16 16 15 13 14 14 13 13 12 13 13 12 12 12 11 11 10 11 11 10 9 8 7 6 4 2 3 3 3 4
2 2 2 3 2 3 3 4 5 6 6 4 3 1 1 2 3 2 3 4 3 5 5 7 2 2 5 5 2 2 5 7 7 7 9 12 12 12 15 19 21 21 22 22 22 23 21 23 29 29 28 27 26 25 24 23 24 23 21 20 21 20 18 18 19 19 19 18 16 16 15 16 15 15 14 13 14 13 13 13 13 12 12 11 11 11 10 9 8 7 5 4 4 4 4 4 4
2 2 2 2 1 2 2 4 4 6 6 1 1 3 1 4 4 2 2 4 3 5 3 6 2 1 6 6 3 5 4 5 8 9 10 12 13 13 15 17 17 17 18 18 20 25 25 22 25 28 30 30 28 27 26 25 25 26 24 22 22 22 21 21 20 20 20 19 18 17 17 17 16 17 15 14 14 13 13 13 13 13 12 11 10 11 10 9 8 7 6 6 5 5 5 4 4
1 1 2 1 1 2 2 4 3 4 4 2 2 3 2 4 2 1 2 6 6 2 2 3 3 3 7 5 4 4 1 2 6 8 10 12 13 14 14 14 14 14 16 17 19 24 28 25 22 23 27 30 30 29 28 27 27 27 26 25 24 23 23 22 21 21 21 20 20 19 19 19 19 19 17 15 14 13 13 13 13 13 12 12 12 11 11 10 9 7 6 6 5 4 4 3 3
1 1 1 1 1 2 3 3 2 3 3 1 1 3 3 4 2 2 3 8 6 2 1 2 4 3 2 4 6 1 3 1 3 7 10 12 13 13 11 10 12 14 16 18 20 21 26 27 24 22 24 27 28 29 29 29 29 28 27 27 26 25 24 24 23 23 22 21 21 21 20 21 22 21 18 16 15 14 14 14 13 13 13 13 13 12 12 11 9 8 7 6 5 4 3 2 2
0 1 1 2 2 2 3 2 1 3 3 1 2 2 3 3 4 3 2 4 6 1 2 4 6 5 3 7 8 3 1 3 2 5 8 10 11 9 8 9 11 14 16 18 21 22 24 26 25 25 26 27 26 27 29 29 29 28 27 27 27 27 26 25 25 24 24 22 22 22 22 22 22 21 20 17 15 15 15 15 14 14 13 13 14 13 13 12 10 10 9 8 6 5 4 2 1
1 2 3 3 3 3 2 4 3 2 3 1 3 3 5 4 4 2 1 3 10 5 5 7 6 7 9 11 8 3 5 5 3 5 7 9 8 7 7 10 11 13 15 18 22 23 24 27 29 26 27 32 31 30 31 30 29 28 28 28 28 27 27 26 26 26 25 23 23 23 24 23 21 20 19 17 16 16 16 16 15 15 14 15 15 14 13 12 11 10 9 8 7 5 3 2 1
2 3 3 4 4 3 4 7 5 1 5 5 2 4 6 7 2 1 2 6 10 10 9 11 9 12 15 15 14 13 11 8 7 7 8 8 8 8 9 11 14 16 16 17 20 23 24 28 34 29 28 36 36 34 34 32 31 29 29 28 28 28 28 27 27 27 26 25 25 25 24 21 18 17 17 17 16 17 18 17 17 16 15 16 16 14 13 13 12 11 10 8 6 5 4 3 2
4 2 3 5 4 2 4 6 5 4 7 7 4 3 4 7 4 1 5 10 9 12 13 10 12 16 17 17 20 19 14 11 11 10 11 12 12 12 12 13 16 18 18 20 22 24 24 25 30 29 33 39 38 37 35 34 32 30 30 26 27 28 29 29 27 28 28 26 28 28 22 19 19 17 17 19 18 18 18 18 18 17 16 17 17 15 14 13 13 12 10 8 6 5 4 4 3
3 2 5 7 5 3 4 7 7 7 7 9 8 2 4 6 3 1 6 11 10 13 15 10 12 14 12 13 15 14 13 13 12 13 14 15 15 15 14 15 17 22 25 24 22 23 24 26 26 27 36 39 38 38 36 35 33 31 30 25 24 25 28 30 27 28 30 29 32 30 22 22 24 20 20 22 20 19 18 19 20 19 18 18 17 15 15 15 14 13 10 8 7 6 5 5 4
2 4 8 4 1 4 6 8 9 6 4 7 8 4 7 5 2 6 6 9 11 13 13 13 15 15 12 11 9 7 9 12 13 15 16 17 17 17 17 17 19 24 27 23 21 26 28 30 29 29 34 34 36 39 37 36 34 31 30 27 25 25 27 29 28 30 33 33 33 30 27 28 27 23 23 23 21 18 18 20 21 19 18 19 18 17 17 17 15 13 11 10 9 8 7 6 6
2 7 10 5 2 4 6 5 5 3 1 5 7 7 7 2 4 11 10 9 12 12 10 12 15 16 15 13 7 5 8 11 12 15 16 18 19 19 19 18 18 20 24 25 26 31 32 33 32 31 31 30 34 37 37 38 36 34 32 31 29 26 27 30 31 34 35 35 34 33 32 31 28 25 25 25 23 20 19 20 20 20 20 22 21 20 19 18 15 13 12 12 10 9 8 7 7
5 8 8 7 5 7 6 2 2 3 3 6 7 7 5 4 11 12 13 16 19 17 14 15 17 16 14 11 7 7 10 11 12 16 17 19 20 21 22 20 19 22 27 30 31 32 33 35 36 35 32 29 29 28 33 39 39 38 35 35 34 29 31 34 35 36 37 37 36 36 34 32 30 28 28 28 27 25 24 24 24 24 24 24 23 22 20 17 16 15 14 13 12 11 10 9 9
7 8 5 6 5 8 8 2 3 4 7 10 7 7 9 12 13 10 13 18 21 20 17 18 20 17 13 11 12 13 14 14 15 18 19 21 24 26 25 24 23 24 29 32 33 33 35 37 38 39 36 32 30 27 33 39 40 41 38 38 38 35 35 37 38 38 39 39 38 37 35 34 32 30 31 31 31 29 28 29 29 29 27 25 24 22 20 18 17 16 15 14 13 12 11 11 10
9 11 6 3 4 8 9 3 5 7 9 9 7 11 18 16 9 14 20 18 18 18 18 19 18 16 13 13 15 14 15 16 17 20 19 23 28 25 25 26 22 23 30 34 34 36 37 38 39 41 40 38 36 31 31 35 40 43 41 42 41 39 39 39 40 41 41 40 40 39 37 36 34 33 33 33 33 32 32 32 32 30 28 26 24 22 20 19 18 17 16 15 15 14 13 12 11
7 9 6 4 7 9 8 7 9 9 8 6 7 16 19 9 4 16 23 16 14 15 16 15 12 12 13 13 14 13 14 15 16 18 18 21 23 22 25 24 21 27 34 32 33 37 36 36 39 41 43 43 40 35 31 33 40 44 44 45 44 42 42 41 42 43 42 42 42 41 39 38 37 36 35 35 35 34 34 33 32 32 29 27 24 23 22 21 20 19 18 17 16 15 15 14 12
0 4 8 9 12 10 7 9 11 9 8 8 10 18 17 2 1 14 11 0 3 7 10 11 9 11 12 11 11 11 12 15 16 16 16 16 16 19 24 22 23 32 32 30 34 36 36 37 38 39 41 44 44 42 38 37 41 46 46 46 45 45 45 44 44 44 44 44 44 43 41 40 39 38 37 37 36 36 36 35 34 33 30 28 26 25 24 22 21 20 19 18 18 17 16 14 13
4 4 10 12 12 12 10 12 11 7 6 7 11 16 16 3 3 15 12 0 1 5 10 13 12 13 13 12 11 8 10 14 15 13 14 16 15 17 21 24 29 32 31 35 38 35 37 38 37 37 39 42 45 46 46 44 43 45 47 46 46 47 47 46 46 46 46 46 46 44 43 41 41 40 39 38 37 37 37 36 36 34 32 30 28 27 25 24 23 21 20 20 19 18 16 15 14
3 3 9 13 12 15 13 10 6 5 4 4 7 9 11 9 11 18 17 9 5 7 12 14 13 13 12 11 9 8 9 12 12 12 16 19 16 15 21 27 31 32 32 36 35 34 37 37 37 39 39 41 45 48 49 49 48 47 48 48 47 47 48 47 47 48 48 48 47 46 44 43 42 41 40 39 38 38 38 38 37 35 33 31 29 28 26 25 24 22 21 20 19 18 17 16 15
4 2 4 11 11 10 6 2 1 2 4 7 6 6 8 10 14 16 10 6 7 10 14 13 12 12 11 10 9 10 12 12 13 15 17 17 15 14 20 25 26 30 32 32 32 34 36 36 38 40 40 42 45 47 48 49 50 50 50 49 47 47 48 48 49 49 49 49 49 47 46 45 44 43 42 40 39 39 39 38 38 36 35 33 30 29 27 26 25 24 23 22 21 19 18 18 17
5 2 2 5 7 6 1 4 2 2 3 7 6 7 8 12 16 12 1 1 6 10 15 14 13 14 13 12 12 13 14 14 18 21 19 15 14 17 22 24 25 29 31 31 35 36 35 35 38 40 41 43 44 46 47 49 51 51 50 49 48 49 48 48 49 49 50 50 50 49 48 46 45 44 43 41 40 40 40 39 38 37 36 33 31 30 29 28 27 26 25 24 22 21 20 19 17
3 3 5 3 4 7 6 3 5 6 1 5 7 6 8 11 16 11 2 1 4 9 17 18 18 19 17 15 13 14 14 15 17 19 16 12 15 18 22 26 27 30 31 33 35 34 34 35 36 38 41 43 44 46 48 49 49 48 49 48 48 50 49 49 49 49 50 50 50 50 49 48 46 45 44 42 42 41 41 40 39 38 37 34 33 33 32 31 29 28 26 25 25 23 21 20 18
4 4 7 6 6 8 8 5 5 5 1 5 10 8 8 9 13 13 5 5 7 12 20 21 21 21 18 16 13 12 12 13 12 11 10 10 13 17 21 25 27 28 30 32 32 32 33 34 35 37 39 42 44 45 46 46 45 45 46 45 45 47 48 49 49 49 50 50 50 50 50 49 48 46 45 44 43 42 42 41 40 39 37 36 35 35 33 32 31 30 28 27 26 24 23 22 19
4 4 5 6 8 8 8 8 2 5 5 7 11 11 13 13 14 18 16 15 14 16 21 22 20 19 18 15 13 13 12 11 9 8 9 11 14 17 19 22 24 26 27 28 30 31 31 32 34 35 36 38 39 40 41 42 41 39 40 40 42 44 46 47 47 48 49 49 50 51 51 50 49 48 47 45 44 43 43 42 41 40 38 37 37 36 35 34 32 31 30 28 27 25 23 22 19
8 5 6 6 7 8 10 10 5 4 8 10 10 13 16 16 15 16 19 20 18 18 20 19 18 19 19 16 14 13 10 9 7 7 9 12 15 17 17 19 22 23 23 25 26 27 28 29 31 32 32 33 34 36 36 36 34 31 31 33 38 41 42 43 45 46 46 48 49 51 51 50 50 49 48 46 45 44 44 43 42 41 39 39 38 37 36 35 34 32 31 30 28 25 21 20 20
8 6 7 9 8 9 12 14 11 8 11 13 15 17 16 15 14 14 16 17 19 21 18 15 15 16 17 15 12 8 8 7 5 6 9 12 15 17 18 19 20 20 20 21 21 22 24 26 27 28 29 30 29 28 29 29 26 24 24 27 32 35 37 40 43 43 43 45 48 50 51 50 50 50 49 48 47 46 45 44 43 42 40 40 39 38 37 37 36 34 32 31 30 27 22 20 21
4 5 8 9 10 12 13 16 12 3 5 10 13 18 17 16 16 15 18 19 20 22 17 13 15 16 15 11 7 7 7 4 4 8 11 12 15 18 21 21 20 18 17 16 16 17 19 21 22 24 26 27 26 24 24 25 24 23 23 25 28 28 31 36 39 41 42 43 46 48 49 50 50 50 50 49 48 47 46 44 44 42 41 41 41 40 39 39 37 36 33 31 30 28 24 23 23
9 8 9 9 9 12 12 14 13 3 2 8 10 16 17 17 19 18 18 18 19 19 15 15 18 17 9 6 8 7 5 4 7 9 9 11 16 21 22 21 19 17 15 14 13 13 14 16 17 20 22 24 26 25 25 26 26 26 25 25 25 23 28 35 35 38 42 43 44 46 47 48 49 50 50 49 49 48 46 45 44 44 43 42 41 41 40 39 38 37 35 31 29 25 23 25 27
10 7 7 7 8 11 10 10 7 2 1 8 11 15 15 17 22 20 17 15 15 15 16 17 15 12 8 9 9 8 7 7 8 8 9 12 17 21 21 20 20 19 18 16 14 12 11 12 13 15 18 22 25 25 26 26 25 26 25 23 22 20 23 31 33 35 39 42 43 44 46 46 47 48 48 49 48 48 47 46 45 45 44 43 43 42 40 40 39 38 37 34 29 21 18 26 31
8 7 6 7 8 8 7 5 1 3 5 9 12 14 12 15 16 12 10 10 10 14 17 13 6 6 8 8 6 6 6 6 8 10 11 12 15 19 20 19 21 21 20 19 19 16 12 9 10 11 13 18 22 24 28 27 24 26 27 26 24 21 21 25 29 32 34 35 38 40 42 44 45 46 47 48 48 48 47 47 46 46 45 45 45 44 42 42 41 41 40 36 32 23 17 25 35
8 8 7 10 10 10 10 6 5 8 7 4 10 12 7 6 2 2 2 3 7 14 12 6 3 4 4 4 4 3 4 6 9 11 11 12 14 18 20 21 21 20 21 25 24 19 15 11 8 8 9 13 17 21 25 26 24 23 23 24 22 19 20 19 21 24 23 25 29 32 35 39 41 43 45 46 47 48 47 47 47 46 46 46 46 46 45 44 44 43 42 39 38 31 23 24 33
7 7 11 14 13 13 13 9 7 7 4 3 8 10 3 2 3 1 2 3 10 12 6 5 5 6 5 5 4 4 7 9 10 10 11 12 13 17 21 24 24 23 26 30 27 23 19 15 11 8 6 8 12 16 20 22 21 19 17 19 17 16 17 17 17 18 18 23 28 29 33 37 40 42 44 46 47 47 48 48 47 47 47 47 47 46 46 46 45 45 44 42 42 37 28 23 29
6 3 6 10 12 11 10 8 5 5 4 2 3 5 6 3 3 5 5 7 14 10 4 8 10 9 5 5 6 8 10 10 10 11 11 11 13 16 20 25 27 26 29 33 30 28 25 21 16 11 6 5 9 12 16 18 17 16 16 17 16 15 15 15 16 17 18 23 27 30 34 36 39 41 43 44 45 47 48 48 48 48 47 47 48 47 46 47 47 46 46 45 45 40 32 24 27
4 1 1 2 5 5 4 4 4 4 6 3 3 4 8 6 2 3 7 10 12 8 5 12 12 8 7 8 10 11 11 11 10 10 10 12 15 17 20 24 26 26 31 34 33 31 29 26 22 16 10 7 8 10 12 15 15 13 15 16 15 15 14 11 11 14 16 18 22 27 30 32 36 39 40 41 43 45 47 48 48 48 48 48 48 48 48 48 47 48 47 47 46 42 38 30 26
2 2 1 1 0 1 2 2 4 3 5 4 4 4 6 7 1 2 7 7 6 5 5 13 12 8 9 11 12 12 12 11 9 8 10 14 17 19 21 22 24 27 31 34 34 32 30 28 26 22 17 12 10 10 9 13 14 13 13 14 14 14 14 12 10 11 12 14 18 22 25 27 32 36 38 40 42 43 45 47 48 48 49 48 48 48 48 48 48 49 49 48 47 45 44 37 25
1 3 3 4 3 2 1 2 3 2 5 6 6 9 6 7 2 4 2 2 4 3 5 11 10 10 11 11 12 12 10 8 7 8 12 15 17 20 23 23 25 27 30 34 37 36 33 30 27 24 21 17 14 12 9 10 12 14 12 12 14 14 12 11 11 11 11 13 15 18 20 23 26 32 37 39 42 44 45 46 46 47 48 48 48 48 48 48 48 49 49 49 50 48 48 45 31
2 4 1 1 2 1 1 1 2 3 7 6 8 14 9 5 1 3 2 1 2 3 3 8 10 12 13 12 12 11 9 8 8 10 13 16 19 22 24 25 26 26 29 34 39 38 35 33 28 24 24 21 17 14 10 9 10 12 12 11 13 13 12 11 12 12 11 12 14 15 17 19 22 27 32 36 40 43 44 45 45 45 46 47 49 49 49 49 48 48 48 48 50 50 49 49 42
1 1 1 2 2 1 2 1 1 5 7 2 3 7 9 8 3 1 1 1 1 2 5 8 10 12 13 12 11 11 10 11 11 12 13 15 18 22 25 25 24 26 29 32 34 34 34 33 29 26 26 25 19 16 13 9 9 10 12 12 12 13 13 13 13 13 12 12 14 14 14 16 19 22 26 32 37 41 42 43 44 44 46 47 49 49 49 50 49 48 48 47 48 50 48 48 46
3 2 1 3 3 2 3 2 2 5 5 1 3 1 5 9 6 5 9 6 2 3 4 6 9 12 13 11 10 10 10 11 13 13 14 14 15 19 23 23 23 25 27 28 30 31 30 30 29 27 27 27 23 18 16 12 10 10 10 12 12 12 13 13 14 14 13 13 13 14 14 16 17 20 26 32 36 40 41 42 44 45 47 48 49 49 49 50 50 48 48 48 48 49 50 48 47
6 5 4 4 4 4 5 4 3 6 2 2 1 2 4 7 5 9 10 4 8 8 6 7 11 14 12 10 10 10 11 13 13 13 14 14 14 17 19 20 22 23 24 25 26 27 27 28 29 28 28 31 30 26 22 18 14 12 12 13 14 13 12 12 13 13 13 13 13 14 16 17 19 23 29 33 35 37 40 42 44 45 45 46 47 49 49 49 50 49 49 51 51 51 51 51 51
6 3 2 4 4 5 5 4 6 8 3 2 2 2 4 4 1 3 3 9 10 9 11 12 13 12 9 9 11 12 13 13 12 12 13 13 15 18 18 18 20 21 23 24 24 25 25 26 27 29 30 33 36 34 30 26 22 19 17 16 16 16 14 13 13 13 13 13 14 15 17 18 21 24 28 32 33 35 38 40 42 43 44 45 45 46 48 48 49 49 49 51 52 52 52 52 53
3 2 1 4 4 4 5 5 4 5 4 2 4 3 4 3 3 3 6 13 11 10 13 13 12 11 9 10 11 11 12 11 11 11 12 14 16 18 18 19 19 20 22 23 24 24 24 24 24 26 28 31 36 37 35 32 30 26 23 19 17 17 16 16 16 16 16 17 18 19 20 21 22 25 27 30 32 34 36 38 40 43 44 45 45 45 46 46 46 47 48 49 50 51 51 52 52
3 3 4 2 1 1 5 6 0 0 6 6 4 6 6 7 8 1 11 14 12 11 12 12 11 10 10 10 10 9 9 9 10 9 10 12 15 17 17 18 19 20 21 22 22 23 23 23 24 25 27 29 33 35 34 33 33 31 27 24 20 18 17 18 18 20 21 22 23 23 23 24 25 27 28 30 31 32 33 35 38 40 42 44 45 46 46 46 45 46 46 47 48 49 50 50 51
3 3 2 1 1 0 3 5 2 3 8 5 5 12 12 9 6 5 13 13 11 11 10 10 9 9 10 9 8 8 8 8 8 8 9 10 12 14 15 15 17 18 18 19 20 20 20 21 22 24 25 27 29 30 29 30 32 33 32 30 27 24 22 20 19 20 22 23 24 25 25 26 27 28 29 30 30 31 32 33 35 38 40 42 44 45 46 46 45 45 45 45 46 47 46 48 49
1 1 2 0 2 3 3 3 3 6 9 6 8 14 12 9 10 4 6 9 10 9 8 9 9 9 8 7 7 7 7 6 6 7 7 8 10 12 13 14 15 16 17 18 18 19 20 23 26 27 25 24 24 25 25 26 29 32 33 33 32 30 27 24 21 21 20 21 23 25 26 27 28 29 29 30 30 31 31 32 34 36 38 40 42 43 44 45 45 45 45 46 46 45 45 46 47
1 1 2 0 2 4 3 2 2 6 9 8 9 10 9 9 8 4 4 7 7 7 7 8 8 7 6 5 5 5 5 4 4 4 5 6 8 11 12 13 14 15 16 16 17 18 21 25 32 34 32 31 31 30 29 29 29 29 31 33 33 33 31 28 25 22 20 19 21 23 25 27 28 29 29 30 30 30 31 32 34 35 36 38 40 41 42 43 44 45 46 47 48 47 47 46 46
4 4 4 3 2 2 3 3 3 6 9 9 10 10 8 4 2 5 8 8 6 7 8 6 5 6 5 4 3 3 3 3 2 3 4 5 7 9 11 11 12 12 14 15 16 19 21 24 28 31 32 34 35 36 35 33 31 30 30 31 31 31 32 31 29 25 21 19 20 21 23 24 25 27 28 29 30 31 32 33 33 34 36 37 38 39 41 42 42 43 44 46 47 47 48 48 46
3 4 5 6 6 4 6 7 7 8 8 7 9 10 5 1 4 6 8 7 6 7 7 7 6 5 4 4 3 3 3 3 4 4 4 5 7 9 10 10 11 12 14 17 18 20 22 23 25 27 29 30 31 32 33 32 32 31 30 29 29 30 31 31 30 27 23 20 19 19 20 21 22 24 26 28 29 30 32 33 33 35 35 36 37 38 40 41 43 44 45 45 46 46 48 48 48
Wind_Direction
335 326 325 336 334 294 280 323 281 176 273 280 290 299 149 87 318 289 314 10 305 29 203 299 167 174 213 306 313 319 306 264 284 292 338 41 283 237 186 190 195 183 182 183 185 187 187 189 186 184 184 185 187 186 188 189 190 191 191 189 187 188 186 180 176 174 171 173 171 171 174 174 174 171 170 165 163 170 171 161 155 155 147 144 141 141 148 144 147 148 135 149 167 154 155 139 127
344 336 327 11 5 302 217 340 284 279 270 285 296 274 42 89 260 311 1 4 346 25 2 278 214 233 282 303 303 294 268 228 266 306 355 300 278 248 202 190 188 180 180 185 184 186 186 189 188 187 187 187 189 189 191 192 192 193 193 192 190 190 189 184 180 177 175 174 174 175 176 177 174 169 165 159 157 160 161 153 149 149 146 144 140 140 139 139 148 141 135 167 178 171 183 141 334
8 359 336 250 17 347 183 232 273 298 288 298 6 85 57 263 285 14 360 346 347 14 287 247 234 255 253 251 265 279 276 222 257 270 262 273 267 253 212 195 187 178 182 186 183 185 185 190 191 189 191 189 191 192 193 195 195 196 195 194 194 193 190 188 184 182 180 177 180 177 175 174 169 164 161 159 155 152 154 152 148 145 147 144 138 135 131 144 154 146 171 193 185 206 240 297 312
27 7 202 243 238 231 235 257 286 288 292 302 336 88 150 285 345 338 321 322 325 276 232 215 213 205 237 258 284 275 273 253 224 227 252 275 238 259 211 199 189 178 185 187 184 185 185 196 194 191 192 190 192 194 195 197 198 199 198 197 197 195 190 189 189 188 186 184 184 180 174 169 165 164 166 169 159 158 160 153 153 150 152 152 151 150 141 156 157 170 214 218 215 239 266 290 300
47 30 89 247 253 289 309 279 279 259 292 339 316 47 141 289 312 307 303 304 292 240 219 215 226 146 239 272 293 275 286 268 173 204 245 325 233 248 205 198 191 181 187 188 185 186 188 199 196 193 194 192 194 195 197 198 200 202 201 201 200 196 191 190 193 193 190 189 187 182 176 167 166 167 171 177 167 173 173 164 168 166 171 171 168 168 166 169 158 185 227 236 241 253 271 285 291
81 58 69 77 47 353 242 249 245 253 297 334 292 313 331 301 300 307 304 307 281 217 216 219 260 262 248 240 218 251 296 312 129 196 217 266 240 233 202 197 192 184 187 188 188 187 192 198 194 193 195 196 196 197 198 198 201 202 202 203 201 196 193 193 194 194 191 192 187 180 176 172 173 176 181 187 188 201 192 182 184 184 190 188 180 176 180 184 169 196 236 244 251 260 271 281 288
171 124 68 92 116 265 254 264 272 273 314 214 276 300 311 313 312 308 307 319 155 178 209 229 281 283 264 195 228 239 245 245 245 219 209 232 235 214 200 197 193 187 187 189 189 189 196 197 192 192 195 197 196 198 198 198 202 201 202 201 199 196 194 195 195 195 193 190 183 179 180 186 187 184 191 203 218 228 213 198 193 190 193 193 190 185 183 176 167 209 243 247 254 262 272 280 287
133 243 17 243 174 217 258 264 272 276 271 222 269 274 288 307 314 300 301 310 248 196 201 219 218 261 281 126 258 222 232 240 236 241 230 237 235 207 197 197 195 189 190 190 191 193 197 195 190 192 195 195 196 198 199 201 201 200 201 199 196 197 198 196 196 195 191 188 185 184 186 194 196 196 211 227 233 227 214 203 200 198 197 198 193 181 177 175 186 230 248 250 259 265 273 280 289
53 359 199 252 223 228 256 257 265 257 244 247 262 258 271 292 296 285 282 277 277 274 218 213 199 242 3 186 260 192 218 247 240 240 238 240 237 215 197 198 199 193 193 192 194 195 195 193 190 191 193 194 197 198 199 200 198 199 201 198 196 196 199 196 195 194 191 193 193 195 196 201 204 215 225 225 222 215 205 199 202 200 196 196 184 178 189 202 221 239 247 252 263 268 274 287 317
76 1 198 220 234 255 261 253 255 227 232 248 264 266 271 281 278 265 271 288 298 290 314 86 207 239 306 296 272 259 235 259 243 241 238 236 233 218 201 200 200 198 196 195 195 193 192 193 191 192 193 195 198 199 198 198 197 198 197 197 197 194 196 197 198 196 197 202 203 207 209 213 217 224 221 211 209 206 199 197 200 198 193 190 187 200 215 221 225 234 244 247 250 243 165 85 77
189 62 235 230 233 268 286 282 281 273 262 266 270 267 274 275 257 248 248 282 288 271 249 142 217 239 265 282 268 249 265 271 246 241 238 230 227 216 205 201 199 202 202 198 196 193 193 194 193 193 195 195 196 199 198 197 198 198 198 198 198 196 199 205 206 205 208 211 213 217 216 223 227 221 217 206 204 204 200 197 196 196 194 192 201 218 223 218 218 226 230 214 185 141 118 106 101
231 140 218 249 253 277 307 300 293 303 293 268 256 179 283 190 204 264 246 281 293 271 240 186 223 277 245 265 261 248 255 259 245 238 234 221 222 214 206 203 200 204 206 201 198 196 195 195 196 196 197 197 197 200 200 200 200 201 203 203 206 205 207 213 214 211 213 215 218 222 218 223 224 214 213 207 203 203 201 198 196 195 195 196 206 218 216 211 210 210 201 171 156 140 131 125 117
251 165 219 250 298 287 299 294 295 306 298 256 131 117 131 194 209 297 276 288 267 270 266 194 212 323 262 279 282 269 240 233 242 236 224 211 213 211 204 203 202 203 204 202 201 200 199 197 199 200 200 200 200 203 204 204 203 205 207 207 211 211 212 218 218 215 214 215 217 219 216 217 217 209 207 205 203 203 202 200 198 195 196 195 198 209 208 205 203 195 180 160 153 145 138 133 124
246 187 252 256 82 272 253 281 284 291 304 49 92 139 192 224 229 280 272 299 275 265 358 198 201 248 263 276 266 263 176 201 240 226 212 207 208 207 202 201 203 201 202 203 204 204 203 201 201 203 203 204 206 209 210 209 207 209 211 211 212 212 213 217 218 217 216 216 217 217 214 215 216 211 206 204 204 203 203 200 196 194 192 190 195 206 204 201 199 186 173 164 158 151 143 134 116
241 176 252 234 184 244 216 259 295 272 293 10 100 133 217 236 190 206 247 297 302 79 39 215 184 242 250 244 276 40 96 304 247 213 204 204 206 206 203 204 205 202 204 206 207 207 206 206 205 206 206 207 210 212 213 213 212 212 212 212 213 213 213 214 216 219 217 216 216 214 213 214 215 213 209 206 206 206 205 201 195 192 188 189 199 203 201 200 194 184 179 175 168 163 154 133 96
257 179 216 248 217 232 209 210 231 250 262 132 122 136 255 232 165 228 272 295 295 107 193 214 188 252 270 244 280 40 102 291 268 210 197 199 205 204 203 207 209 208 211 211 210 209 209 210 210 211 211 211 211 213 214 214 216 214 213 212 213 214 212 213 216 219 217 215 215 212 213 215 215 215 213 210 209 210 207 203 195 190 188 191 199 199 200 198 191 188 183 181 177 170 161 140 102
221 221 231 250 226 225 198 192 202 275 297 225 155 175 258 264 159 218 314 255 269 259 214 224 206 235 245 246 272 294 273 282 260 217 188 193 196 195 205 207 209 212 215 215 214 213 213 214 214 215 215 216 216 216 217 217 217 215 213 213 215 215 212 213 217 219 215 212 213 211 214 215 213 214 213 210 211 211 209 205 195 188 185 190 199 198 198 195 191 191 186 185 181 170 161 150 145
217 225 238 250 246 228 193 211 212 271 297 273 210 173 250 281 275 170 252 240 250 261 246 234 235 240 240 250 263 262 265 265 244 217 192 192 191 196 202 203 209 213 216 215 214 214 216 217 217 218 219 220 219 220 221 220 219 216 213 214 216 215 212 214 217 218 214 211 212 212 213 211 208 206 205 205 205 207 209 204 194 186 184 193 200 198 196 195 193 194 192 189 181 174 170 169 181
227 217 240 245 242 210 192 225 218 230 278 290 278 199 234 279 308 35 269 269 261 270 269 237 236 248 242 244 251 250 250 247 234 219 211 207 204 204 202 201 207 212 214 214 214 212 213 216 218 219 221 222 222 223 224 222 220 216 213 213 214 214 213 214 214 215 212 209 212 212 208 205 204 201 202 204 202 204 205 200 192 186 188 195 200 199 196 195 196 198 196 192 185 183 183 189 199
226 214 248 249 240 229 216 234 231 240 278 290 281 253 249 265 269 209 258 277 268 262 270 254 248 261 251 238 239 234 230 232 227 223 226 224 219 216 211 204 205 214 216 215 213 210 210 213 215 217 220 222 222 223 224 222 218 216 213 212 212 210 212 213 211 212 211 210 213 211 204 208 210 206 210 212 208 205 202 197 192 192 195 200 201 197 194 196 199 200 196 193 193 193 194 201 204
181 201 249 261 218 245 231 229 237 250 281 277 277 287 276 269 209 223 242 275 268 253 256 255 264 278 277 264 240 206 213 225 222 225 230 230 227 224 223 217 216 222 222 216 213 213 214 214 214 216 217 219 221 222 222 220 217 215 212 211 210 208 210 209 209 212 213 214 215 211 208 215 215 211 215 214 207 201 196 194 193 194 195 200 200 192 193 198 200 199 195 195 197 199 200 206 208
207 219 248 261 191 259 250 221 234 241 236 257 262 275 285 299 235 233 223 250 264 262 264 261 269 279 280 279 262 202 215 225 222 225 227 230 230 227 229 226 223 225 224 221 219 220 220 218 216 215 214 215 219 220 220 219 217 215 213 212 210 207 209 208 210 213 214 216 215 214 215 218 215 211 214 210 202 196 191 190 190 192 194 200 199 194 198 200 199 197 197 198 199 202 204 208 210
252 234 240 251 230 249 258 179 181 186 212 249 256 282 300 273 270 250 213 232 255 265 278 276 276 277 277 278 264 238 233 230 228 227 226 229 230 229 229 225 222 224 228 228 225 224 224 223 220 216 215 214 214 215 217 218 218 216 215 214 212 208 210 210 212 213 214 216 215 217 217 216 213 211 212 209 205 201 196 195 195 197 201 204 202 201 203 200 197 198 199 201 202 204 205 208 209
252 256 241 249 241 248 259 222 197 219 240 255 272 298 282 261 275 275 229 233 253 266 274 272 274 276 273 269 259 254 250 244 241 238 234 236 238 238 237 233 229 229 232 233 229 228 227 228 225 219 218 214 211 211 214 218 219 218 216 216 215 213 213 213 213 214 215 216 216 218 216 215 213 211 212 211 209 205 202 203 203 205 206 207 206 204 204 200 199 199 201 202 202 205 205 207 207
227 253 258 243 248 254 264 250 228 246 249 254 273 275 269 264 282 286 266 252 255 264 267 266 271 272 267 264 261 257 256 253 250 249 244 244 248 248 244 239 233 232 235 235 232 231 231 231 228 223 221 218 215 212 211 215 218 218 217 218 217 215 216 215 215 216 216 216 217 218 216 215 214 213 214 212 210 208 207 208 207 208 209 209 208 205 203 202 202 201 201 202 203 205 204 206 207
215 250 281 278 275 273 270 262 243 244 247 225 241 263 267 271 307 277 270 265 256 255 262 267 271 269 263 260 259 254 255 256 253 253 249 248 250 249 248 243 231 235 239 237 235 234 233 231 231 227 225 223 219 215 211 213 217 218 218 219 218 217 218 216 216 217 217 217 217 218 218 217 216 215 215 213 211 210 210 210 209 210 211 211 209 206 204 203 205 204 202 203 203 204 204 204 206
71 280 297 280 278 280 260 261 255 244 251 215 222 262 268 244 83 268 269 22 238 252 266 270 268 267 264 259 259 255 252 254 253 255 255 252 245 243 249 244 235 241 242 239 239 239 236 234 233 230 227 226 222 218 216 216 218 219 219 220 219 219 219 218 218 218 218 219 219 219 219 219 218 218 217 215 213 212 211 210 209 210 211 211 209 207 206 204 205 205 204 204 204 203 203 203 203
8 324 297 279 277 279 251 253 257 237 249 217 214 258 269 235 192 254 261 51 357 292 281 275 270 268 269 266 264 258 253 255 252 248 251 251 242 237 244 245 245 247 244 244 243 240 240 237 233 232 229 227 224 221 222 222 221 220 221 221 221 221 220 219 219 219 219 220 221 221 221 220 220 219 219 218 215 213 212 210 210 211 212 211 209 207 206 205 204 206 206 205 204 203 202 202 202
319 305 295 290 287 282 265 256 252 210 225 176 189 250 264 237 220 243 257 271 295 293 279 276 272 269 270 268 264 262 261 259 251 238 242 248 247 244 250 253 254 252 251 252 246 241 241 238 235 234 231 229 227 225 225 225 224 223 223 222 222 221 221 220 220 221 221 221 222 223 222 221 221 220 220 220 217 214 213 212 212 212 212 211 209 208 206 206 205 206 206 205 203 202 202 202 201
273 255 288 296 291 284 263 220 104 203 201 153 177 260 271 251 250 254 257 274 290 285 279 277 273 272 271 266 265 265 261 260 258 252 251 254 257 258 261 262 259 257 256 254 249 246 244 238 236 234 230 230 229 227 225 226 225 224 225 223 222 222 222 221 221 222 222 222 223 223 223 223 222 221 221 220 217 216 215 214 214 213 213 211 209 207 206 206 206 205 205 202 202 201 201 201 199
275 277 238 277 281 281 160 136 145 256 188 154 200 263 271 273 278 278 291 318 286 285 284 285 280 278 277 271 268 265 265 262 263 268 271 270 269 267 267 268 264 261 257 253 253 252 247 241 238 233 231 231 229 227 226 226 225 224 225 223 222 224 223 222 222 222 222 223 223 224 223 223 223 222 222 221 217 217 216 216 215 214 214 212 209 207 206 206 206 206 204 201 199 198 200 199 197
255 275 258 231 239 269 284 231 207 248 253 159 211 263 264 262 278 286 84 141 262 280 285 287 284 280 279 277 270 268 271 269 269 279 285 279 273 270 270 271 266 262 258 255 255 253 247 243 241 236 232 231 229 229 228 227 225 224 224 223 223 225 224 223 223 223 223 223 223 223 223 223 223 223 223 222 219 217 217 216 216 216 215 211 208 208 207 206 206 205 204 202 200 197 198 198 195
211 233 264 262 257 278 296 279 217 209 176 192 218 259 277 259 281 293 282 242 260 277 282 282 281 281 280 278 277 275 275 280 288 299 303 295 281 272 269 271 269 265 263 259 255 252 248 243 241 238 234 232 230 230 228 226 225 224 225 224 224 225 224 224 224 224 224 223 223 223 223 223 223 223 224 223 220 219 218 217 217 217 216 211 209 208 206 207 206 205 204 203 202 198 196 195 193
233 219 246 260 259 271 289 291 269 157 190 230 226 241 265 266 277 288 286 281 277 274 276 276 277 281 281 281 282 279 283 295 308 324 321 309 290 276 269 271 272 270 266 263 257 254 250 245 242 240 235 232 229 228 227 226 225 226 225 225 225 225 225 224 224 225 224 224 223 223 224 224 223 223 224 223 221 220 220 219 219 218 215 211 210 208 206 207 207 207 205 203 201 198 194 193 191
275 269 268 275 256 250 265 275 285 264 260 272 262 251 265 272 268 270 276 280 280 271 267 272 276 280 282 283 279 281 298 312 325 339 321 301 291 288 285 283 282 277 270 266 262 256 251 247 244 241 235 230 228 227 227 226 225 225 225 226 227 226 226 225 224 225 225 224 224 224 225 224 223 223 223 223 221 221 220 220 219 218 215 211 209 207 206 206 206 207 206 204 200 196 192 190 191
286 286 278 282 277 264 266 270 274 287 285 284 279 274 280 284 277 273 273 275 277 273 270 276 280 278 277 275 277 301 329 334 348 330 303 298 303 309 310 305 300 292 280 272 264 257 252 247 244 241 235 230 226 222 221 220 218 218 220 223 226 226 226 226 226 225 226 226 225 225 226 225 224 223 223 223 222 221 220 220 219 218 214 211 209 207 207 209 208 207 206 205 200 195 191 190 191
289 272 269 268 276 276 274 278 281 303 295 277 273 281 289 289 284 278 274 274 273 274 281 286 277 271 270 277 304 353 354 346 326 293 293 308 322 332 332 328 322 314 302 290 274 263 256 248 243 241 237 230 222 216 214 212 209 210 214 218 223 224 224 226 227 227 227 227 227 226 226 225 224 224 223 222 222 220 219 219 218 217 214 211 211 211 211 211 209 207 205 204 201 196 193 192 190
258 260 270 268 267 271 272 281 290 343 317 272 269 282 291 292 286 274 266 267 269 275 283 275 266 265 276 332 351 358 359 328 296 294 314 336 347 354 353 350 344 336 329 319 302 283 269 255 245 240 237 231 224 220 217 215 213 213 215 219 220 220 223 226 226 228 229 228 229 228 227 226 225 224 224 223 222 220 218 217 217 217 215 212 212 212 212 212 210 208 204 200 198 195 195 193 187
254 251 262 268 266 275 272 267 287 33 285 287 298 295 293 284 277 273 269 263 263 268 262 258 265 280 313 347 340 341 350 323 311 332 353 356 358 3 4 3 1 0 0 353 342 327 301 272 254 243 237 235 231 226 224 221 219 219 220 222 221 220 226 229 229 230 231 231 230 230 228 227 226 225 224 223 221 220 218 218 218 217 216 214 212 211 211 211 209 208 205 200 193 189 195 196 190
242 242 255 266 265 274 270 249 343 10 278 294 304 292 282 272 263 266 279 270 262 261 255 259 291 326 329 339 342 352 351 331 344 1 3 5 10 12 12 7 5 11 14 9 2 354 339 308 274 254 244 240 236 232 230 227 224 225 224 225 227 225 231 234 233 234 235 233 231 231 230 228 227 225 225 224 222 221 220 219 219 218 217 215 213 212 211 210 209 208 206 201 194 186 188 196 195
236 231 240 259 263 263 265 282 343 313 279 305 314 295 272 262 236 134 235 248 264 264 260 282 25 56 14 23 32 7 4 10 8 2 3 16 21 21 19 12 9 14 15 12 9 2 354 342 313 279 258 248 242 239 237 230 226 226 223 225 229 229 234 236 234 234 234 233 232 232 231 229 228 227 226 226 224 223 222 221 221 220 218 216 214 212 212 211 210 209 206 203 200 194 189 192 197
257 227 228 246 262 269 273 295 333 307 275 50 348 320 286 160 116 178 259 273 274 274 289 341 22 61 61 49 39 33 40 33 18 7 10 21 28 29 26 20 15 12 13 16 15 10 5 360 349 325 288 259 251 246 241 232 225 222 216 215 217 220 227 227 226 225 224 228 231 232 233 232 230 229 228 227 226 224 223 223 222 221 220 217 215 213 213 212 211 211 209 206 205 202 193 188 195
268 237 228 243 257 267 275 293 312 297 295 30 12 308 288 259 214 253 276 263 260 270 360 28 37 48 57 56 43 42 42 31 22 19 18 24 31 34 30 24 18 11 13 20 22 18 14 11 7 356 334 294 273 259 245 234 225 221 217 215 216 217 222 225 223 220 222 226 227 229 233 233 232 230 229 229 227 225 224 223 223 222 221 220 217 214 214 214 213 213 213 210 208 204 198 191 193
263 46 14 234 249 257 251 267 260 276 309 301 189 233 281 284 240 248 245 240 256 277 24 55 58 43 36 52 50 45 40 29 23 18 15 24 31 36 37 29 21 15 17 23 25 23 20 17 15 11 1 339 302 282 254 239 229 223 222 222 225 228 231 236 230 223 225 225 224 227 230 231 231 230 229 229 228 226 225 224 224 223 221 221 219 216 216 216 215 215 214 212 210 206 203 201 197
306 57 46 92 81 219 185 247 258 277 312 282 183 174 271 279 214 229 246 249 281 298 45 62 64 47 39 49 50 47 42 33 27 21 22 30 31 35 41 35 25 21 21 25 27 28 26 23 21 18 12 3 336 312 276 250 239 231 229 228 232 236 237 243 241 231 229 227 227 228 228 229 231 230 229 229 229 228 227 226 224 223 222 222 220 219 218 218 218 217 215 213 211 210 209 207 203
106 125 106 88 86 84 142 267 283 278 281 263 185 171 251 289 190 181 238 289 286 246 88 70 69 62 51 48 46 43 39 34 29 32 35 35 33 35 42 39 31 27 25 28 32 33 31 27 25 23 17 10 354 336 307 272 252 241 240 237 238 241 240 243 244 239 235 232 231 229 228 229 230 230 229 229 229 229 228 227 225 224 223 222 222 220 220 220 220 219 218 217 215 213 213 211 209
135 163 136 105 137 97 150 264 306 274 266 253 186 182 218 274 201 175 175 153 277 280 49 65 74 67 54 43 39 35 31 28 23 29 35 33 32 35 38 37 32 29 28 30 33 33 32 31 28 25 22 15 3 350 330 300 275 256 251 248 247 248 248 249 248 245 239 232 231 229 227 227 228 230 229 228 229 229 228 227 226 226 224 223 223 222 222 222 221 221 220 220 218 216 216 214 213
197 198 303 284 243 171 193 170 158 251 264 274 141 178 214 237 232 133 199 204 199 299 354 48 72 67 56 46 39 32 27 28 26 25 27 26 28 31 33 33 30 29 29 29 30 31 32 31 29 29 27 21 12 0 346 322 299 279 268 263 261 258 256 257 255 252 245 236 236 232 227 225 226 228 228 229 230 229 227 226 225 225 225 225 225 224 223 222 222 221 221 220 220 219 218 217 216
206 205 231 270 283 261 245 232 200 245 260 61 73 131 228 243 243 242 261 282 57 71 26 61 79 67 60 53 44 37 29 32 33 27 24 23 23 25 26 27 26 27 28 27 27 29 30 30 30 31 29 26 22 13 3 348 325 304 288 279 275 270 264 263 260 259 254 247 242 236 230 228 226 227 230 231 232 230 227 226 226 226 225 226 226 225 224 223 222 221 221 221 222 221 221 220 219
187 195 194 216 253 267 262 253 255 268 264 95 121 182 245 273 259 234 249 330 57 73 66 76 80 72 68 61 49 43 35 33 34 30 28 25 23 24 25 24 26 26 25 25 26 26 28 29 30 31 31 30 30 26 19 9 352 332 313 294 284 280 274 272 269 266 264 257 249 243 239 236 234 235 238 237 236 233 230 228 227 227 227 227 227 226 225 225 224 223 222 223 223 224 224 223 223
184 182 181 223 244 256 264 254 260 276 286 119 152 181 261 301 26 196 147 78 76 82 79 79 79 76 75 62 49 43 37 32 30 31 31 27 23 23 24 25 26 25 24 26 26 24 26 27 27 29 29 29 31 30 26 21 12 0 346 322 298 287 281 279 278 273 270 264 257 252 249 246 244 244 246 245 242 238 235 232 229 228 228 227 228 227 227 226 225 224 223 224 225 225 225 225 225
172 112 194 249 242 223 258 272 266 295 307 240 203 226 263 278 281 243 131 104 93 82 77 75 71 66 60 53 45 41 40 35 31 30 28 28 27 25 24 24 25 24 25 26 26 24 24 24 25 28 29 29 32 33 30 26 22 16 9 353 327 309 299 291 284 279 276 272 268 264 259 255 253 252 252 250 248 244 240 236 232 231 230 228 228 228 228 227 226 224 224 224 225 226 226 226 225
144 157 205 226 31 203 260 275 243 313 274 257 238 260 271 279 286 237 119 114 98 79 72 71 67 60 58 53 45 41 42 39 35 32 28 27 28 27 25 24 24 24 24 24 24 24 24 23 24 26 27 28 30 32 31 29 28 24 18 9 357 345 331 316 301 291 285 281 276 272 268 265 261 259 257 255 252 249 245 241 237 234 232 231 229 229 229 228 227 226 225 225 227 227 227 227 226
141 184 223 114 32 296 250 264 251 230 254 249 237 261 275 280 278 110 116 120 105 87 78 75 70 64 65 61 51 44 41 39 36 33 30 29 29 29 27 26 27 26 25 25 24 24 25 26 27 28 28 27 26 27 28 27 28 28 24 20 14 7 357 342 326 312 301 292 285 280 275 272 269 266 263 260 256 252 249 245 240 237 236 233 232 231 230 229 228 227 227 227 228 228 228 228 228
121 240 301 348 243 233 201 225 249 244 253 250 233 249 260 257 256 235 142 128 109 97 87 77 68 65 68 66 60 50 42 37 34 31 28 27 28 28 27 28 28 28 26 25 23 23 25 27 28 29 29 28 26 25 25 25 26 26 25 24 22 19 13 2 348 334 318 305 296 291 285 280 277 273 268 264 260 254 250 247 243 240 239 236 234 233 231 229 228 227 227 228 229 229 228 229 229
100 254 270 289 260 259 234 218 276 258 259 262 247 244 245 248 263 256 134 107 93 94 89 76 69 72 72 70 68 57 51 45 33 33 31 28 28 27 27 28 27 27 25 22 20 21 23 25 26 27 26 24 24 23 23 22 22 22 22 23 23 22 20 15 7 355 337 321 310 302 296 291 285 280 274 268 263 257 252 250 247 243 241 239 236 234 232 230 229 228 227 228 229 229 228 229 229
198 218 225 220 217 264 272 246 235 247 257 261 259 254 247 255 16 99 108 89 79 93 96 95 93 94 92 87 89 83 74 63 42 36 32 26 27 26 27 27 27 27 26 24 22 22 23 22 22 23 22 21 20 19 19 19 19 19 19 20 20 19 19 18 16 9 354 338 326 315 308 302 292 285 279 273 266 261 257 253 250 247 244 241 238 235 233 231 230 229 229 229 229 228 228 228 228
217 227 224 232 232 235 260 247 216 226 247 257 264 263 248 107 74 102 108 103 111 118 120 124 122 122 120 105 90 77 64 52 43 38 32 26 24 22 23 24 24 24 23 22 22 22 22 21 19 18 19 18 16 15 15 14 14 14 15 15 15 16 17 16 15 12 4 352 341 327 318 310 300 291 285 278 271 265 261 258 253 250 247 243 241 238 235 233 231 231 230 230 230 229 228 227 226